Location: Dixon
(37.9953°N, 92.0959°W)
Time: 09:17:25
(UTC+00:00)

Hubble Space Telescope - Pass Details

Date: 10 December 2025
Orbit: 479 x 481 km, 28.5° (Epoch: 14 January)

Event Time Altitude Azimuth Distance (km) Brightness Sun altitude
Rises 23:22:09 0° 216° (SW) 2,520 5.4 -6.7°
Reaches altitude 10° 23:26:02 10° 176° (S) 1,643 3.5 -7.4°
Maximum altitude 23:26:52 11° 163° (SSE) 1,607 3.3 -7.5°
Drops below altitude 10° 23:27:42 10° 150° (SSE) 1,644 3.2 -7.7°
Enters shadow 23:31:00 - 114° (ESE) 2,343 3.6 -8.3°
